Overview Statistics Trail Chart Weather Telemetry Raw packets
 

This is the latest recevied weather packets stored in our database for station/object HA2SKA-1. If no packets are shown the sender has not sent any weather packets the latest 10 day(s).

<< 33 34 35 36 37 38 >>
Time Temp. Humidity Pressure Rain* Wind** Luminosity Snow
1787872805 26.67° C 59% 1019.4 hPa - - - -
1787871905 27.22° C 58% 1019.4 hPa - - - -
1787871005 27.22° C 57% 1019.4 hPa - - - -
1787870105 27.22° C 57% 1019.4 hPa - - - -
1787869205 27.78° C 57% 1019.7 hPa - - - -
1787868311 27.22° C 58% 1019.8 hPa - - - -
1787867405 27.78° C 58% 1019.7 hPa - - - -
1787866505 27.78° C 59% 1019.4 hPa - - - -
1787865605 27.78° C 59% 1019.3 hPa - - - -
1787864705 27.78° C 59% 1019.4 hPa - - - -
1787863804 28.33° C 59% 1019.2 hPa - - - -
1787862904 27.78° C 61% 1019.2 hPa - - - -
1787862005 27.78° C 60% 1019.1 hPa - - - -
1787861104 28.33° C 58% 1019.2 hPa - - - -
1787860204 28.33° C 58% 1019.4 hPa - - - -
1787859304 28.89° C 57% 1019.2 hPa - - - -
1787858404 28.89° C 56% 1019.2 hPa - - - -
1787857504 28.33° C 56% 1019 hPa - - - -
1787856604 28.89° C 55% 1018.8 hPa - - - -
1787855703 29.44° C 54% 1018.6 hPa - - - -
1787854805 30° C 53% 1018.6 hPa - - - -
1787853903 30.56° C 50% 1018.5 hPa - - - -
1787853003 30.56° C 54% 1018.4 hPa - - - -
1787852102 31.11° C 55% 1018.2 hPa - - - -
1787851202 31.67° C 54% 1018.1 hPa - - - -

* Rain since midnight (hover to see other rain measurements)
** Current wind speed in m/s (hover to see current wind gust speed)